Погода в Херпучи

Россия / Хабаровский край     52°58′43″N   138°50′37″E
темп.,
°C
ветер,
м/с
пор.,
м/с
влажн.,
%
обл.,
%
осадки,
мм/ч
давл.,
гПа
погр.,
м
24 сентября, пт
пт2401:00+3з11882 0.0 102410
04:00+2зюз11900 0.0 102511
07:00+2зюз11900 0.0 102611
10:00+10юз11580 0.0 1025332
13:00+15юз11450 0.0 1024899
16:00+16ююз11430 0.0 10231044
19:00+9ю11660 0.0 102410
22:00+6юз11730 0.0 102511
25 сентября, сб
сб2501:00+5юз11800 0.0 102511
04:00+4юз11880 0.0 102512
07:00+3юз11913 0.0 102614
10:00+12юз12575 0.0 1025290
13:00+17зюз23455 0.0 1024721
16:00+18юз12455 0.0 1023950
19:00+11юз11695 0.0 102310
22:00+8зюз118188 0.0 102411
26 сентября, вс
вс2601:00+7юз1187100 0.0 102413
04:00+6юз22945 0.0 102317
07:00+5зюз1195100 0.0 102315
10:00+13зюз126492 0.0 1023298
13:00+17сз255198 0.0 10211203
16:00+17с235473 0.0 10201001
19:00+10ссв11836 0.0 102010
22:00+8зюз119185 0.0 102010
27 сентября, пн
пн2701:00+7зюз1193100 0.0 101910
04:00+7ююз119498 0.0 101910
07:00+7ююв009588 0.0 101810
10:00+13в1171100 0.0 1017335
13:00+18вюв135616 0.0 10151065
16:00+19ююв1451100 0.0 10131431
19:00+14вюв1172100 0.0 101220
22:00+10ююв119026 0.0 101111
28 сентября, вт
вт2801:00+11юв1181100 0.0 101030
04:00+11ю1177100 0.0 100942
07:00+11юз11865 0.0 100933
10:00+16юз367346 0.0 1010533
13:00+19зюз474899 0.0 10101434
16:00+20зюз36460 0.0 10111495
19:00+13ююв21685 0.0 101211
22:00+11ю1181100 0.0 101114